| time (UTC) | temp C | wind direction | speed KPH | gust KPH | rain 1hr cm | rain 24hr cm | rain mn cm | humidity % | barometer mb |
| 20260506203030 | 8 | 0 | 0.0 | 0.0 | 0.00 | 0.00 | 0.00 | 85 | 1012.1 |
| 20260506201541 | 9 | 0 | 0.0 | 0.0 | 0.00 | 0.00 | 0.00 | 84 | 1011.9 |
| 20260506200029 | 9 | 0 | 0.0 | 1.6 | 0.00 | 0.00 | 0.00 | 83 | 1011.8 |
| 20260506194529 | 10 | 144 | 0.0 | 1.6 | 0.00 | 0.00 | 0.00 | 85 | 1011.6 |
| 20260506193030 | 10 | 0 | 0.0 | 1.6 | 0.00 | 0.00 | 0.00 | 85 | 1011.6 |
| 20260506191532 | 10 | 134 | 0.0 | 4.8 | 0.00 | 0.00 | 0.00 | 87 | 1011.3 |
| 20260506190032 | 10 | 0 | 0.0 | 1.6 | 0.00 | 0.00 | 0.00 | 88 | 1011.0 |
| 20260506184528 | 10 | 129 | 0.0 | 3.2 | 0.00 | 0.00 | 0.00 | 87 | 1010.8 |
| 20260506183030 | 11 | 129 | 1.6 | 3.2 | 0.00 | 0.00 | 0.00 | 87 | 1010.6 |
| 20260506181530 | 11 | 129 | 1.6 | 1.6 | 0.00 | 0.00 | 0.00 | 87 | 1010.5 |
| 20260506180031 | 11 | 129 | 1.6 | 3.2 | 0.00 | 0.00 | 0.00 | 86 | 1010.2 |
| 20260506174529 | 11 | 129 | 1.6 | 1.6 | 0.00 | 0.00 | 0.00 | 87 | 1010.2 |
| 20260506173028 | 11 | 129 | 1.6 | 1.6 | 0.00 | 0.00 | 0.00 | 86 | 1010.0 |
| 20260506171542 | 11 | 129 | 1.6 | 3.2 | 0.00 | 0.00 | 0.00 | 85 | 1009.8 |
| 20260506170032 | 11 | 129 | 1.6 | 3.2 | 0.00 | 0.00 | 0.00 | 85 | 1009.7 |
| 20260506164532 | 11 | 129 | 3.2 | 4.8 | 0.00 | 0.00 | 0.00 | 85 | 1009.6 |
| 20260506163038 | 11 | 0 | 1.6 | 4.8 | 0.00 | 0.00 | 0.00 | 87 | 1009.6 |
| 20260506161527 | 11 | 0 | 0.0 | 0.0 | 0.00 | 0.00 | 0.00 | 89 | 1009.6 |
| 20260506160034 | 11 | 0 | 0.0 | 0.0 | 0.00 | 0.00 | 0.00 | 89 | 1009.7 |
| 20260506154537 | 11 | 127 | 0.0 | 0.0 | 0.00 | 0.00 | 0.00 | 89 | 1009.5 |
| 20260506153027 | 11 | 0 | 0.0 | 1.6 | 0.00 | 0.00 | 0.00 | 89 | 1009.6 |
| 20260506151530 | 11 | 0 | 0.0 | 1.6 | 0.00 | 0.00 | 0.00 | 89 | 1009.6 |
| 20260506150031 | 11 | 127 | 0.0 | 1.6 | 0.00 | 0.00 | 0.00 | 90 | 1009.4 |
| 20260506144527 | 12 | 0 | 0.0 | 1.6 | 0.00 | 0.00 | 0.00 | 90 | 1009.4 |
| 20260506143028 | 12 | 125 | 0.0 | 1.6 | 0.00 | 0.00 | 0.00 | 91 | 1009.4 |
| 20260506141528 | 11 | 120 | 0.0 | 1.6 | 0.00 | 0.00 | 0.00 | 91 | 1009.3 |
| 20260506140034 | 11 | 120 | 0.0 | 4.8 | 0.00 | 0.00 | 0.00 | 91 | 1009.5 |
| 20260506134527 | 11 | 0 | 0.0 | 0.0 | 0.00 | 0.00 | 0.00 | 93 | 1009.6 |
| 20260506133029 | 11 | 0 | 0.0 | 0.0 | 0.00 | 0.00 | 0.00 | 93 | 1009.6 |
| 20260506131532 | 11 | 0 | 0.0 | 0.0 | 0.00 | 0.00 | 0.00 | 94 | 1009.5 |
| 20260506130028 | 10 | 0 | 0.0 | 3.2 | 0.00 | 0.00 | 0.00 | 94 | 1009.5 |
| 20260506124532 | 10 | 127 | 3.2 | 4.8 | 0.00 | 0.00 | 0.00 | 94 | 1009.4 |
| 20260506123032 | 10 | 132 | 1.6 | 6.4 | 0.00 | 0.00 | 0.00 | 94 | 1009.3 |
| 20260506121531 | 10 | 128 | 3.2 | 4.8 | 0.00 | 0.00 | 0.00 | 94 | 1009.3 |
| 20260506120033 | 10 | 132 | 3.2 | 6.4 | 0.00 | 0.00 | 0.00 | 94 | 1009.2 |
| 20260506114530 | 10 | 141 | 1.6 | 4.8 | 0.00 | 0.00 | 0.00 | 95 | 1009.1 |
| 20260506113031 | 10 | 132 | 3.2 | 4.8 | 0.00 | 0.00 | 0.00 | 95 | 1009.2 |
| 20260506111531 | 10 | 130 | 1.6 | 4.8 | 0.00 | 0.00 | 0.00 | 95 | 1009.3 |
| 20260506110030 | 10 | 129 | 1.6 | 4.8 | 0.00 | 0.00 | 0.00 | 95 | 1009.2 |
| 20260506104528 | 10 | 0 | 0.0 | 3.2 | 0.00 | 0.00 | 0.00 | 95 | 1009.3 |
| 20260506103032 | 9 | 129 | 0.0 | 4.8 | 0.00 | 0.00 | 0.00 | 95 | 1009.4 |
| 20260506101528 | 8 | 125 | 1.6 | 4.8 | 0.00 | 0.00 | 0.00 | 95 | 1009.3 |
| 20260506100029 | 8 | 136 | 1.6 | 4.8 | 0.00 | 0.00 | 0.00 | 95 | 1009.1 |
| 20260506094531 | 8 | 132 | 1.6 | 3.2 | 0.00 | 0.00 | 0.00 | 95 | 1009.1 |
| 20260506093052 | 8 | 127 | 1.6 | 6.4 | 0.00 | 0.00 | 0.00 | 95 | 1008.9 |
| 20260506091528 | 8 | 125 | 1.6 | 6.4 | 0.00 | 0.00 | 0.00 | 95 | 1008.8 |
| 20260506090028 | 8 | 131 | 1.6 | 6.4 | 0.00 | 0.00 | 0.00 | 95 | 1008.6 |
| 20260506084528 | 8 | 133 | 1.6 | 6.4 | 0.00 | 0.00 | 0.00 | 95 | 1008.6 |
| 20260506083032 | 8 | 131 | 1.6 | 3.2 | 0.00 | 0.00 | 0.00 | 95 | 1008.5 |
| 20260506081531 | 8 | 128 | 1.6 | 4.8 | 0.00 | 0.00 | 0.00 | 95 | 1008.3 |
| 20260506073028 | 8 | 130 | 3.2 | 4.8 | 0.00 | 0.00 | 0.00 | 95 | 1008.1 |
| 20260506071529 | 7 | 131 | 3.2 | 4.8 | 0.00 | 0.00 | 0.00 | 95 | 1007.9 |
| 20260506061528 | 7 | 131 | 1.6 | 4.8 | 0.00 | 0.00 | 0.00 | 95 | 1007.8 |
| 20260506044529 | 7 | 131 | 1.6 | 3.2 | 0.00 | 0.00 | 0.00 | 94 | 1007.7 |
| 20260506043030 | 7 | 131 | 1.6 | 4.8 | 0.00 | 0.00 | 0.00 | 94 | 1007.6 |
| 20260506041531 | 7 | 127 | 1.6 | 4.8 | 0.00 | 0.00 | 0.00 | 94 | 1007.6 |
| 20260506040031 | 7 | 125 | 0.0 | 3.2 | 0.00 | 0.00 | 0.00 | 95 | 1007.6 |
| 20260506034528 | 7 | 131 | 1.6 | 3.2 | 0.00 | 0.00 | 0.00 | 94 | 1007.7 |
| 20260506033028 | 7 | 129 | 0.0 | 3.2 | 0.00 | 0.00 | 0.00 | 94 | 1007.8 |
| 20260506031528 | 7 | 129 | 1.6 | 4.8 | 0.00 | 0.00 | 0.00 | 94 | 1007.7 |
| 20260506030030 | 7 | 126 | 1.6 | 3.2 | 0.00 | 0.00 | 0.00 | 94 | 1007.7 |
| 20260506024532 | 7 | 129 | 0.0 | 3.2 | 0.00 | 0.00 | 0.00 | 94 | 1007.9 |
| 20260506023030 | 7 | 0 | 1.6 | 3.2 | 0.00 | 0.00 | 0.00 | 94 | 1007.9 |
| 20260506021530 | 7 | 123 | 1.6 | 3.2 | 0.00 | 0.00 | 0.00 | 94 | 1008.0 |
| 20260506020056 | 7 | 131 | 1.6 | 4.8 | 0.00 | 0.00 | 0.00 | 94 | 1007.9 |
| 20260506014528 | 8 | 131 | 1.6 | 4.8 | 0.00 | 0.00 | 0.00 | 94 | 1008.0 |
| 20260506013030 | 8 | 194 | 1.6 | 4.8 | 0.00 | 0.00 | 0.00 | 94 | 1007.9 |
| 20260506011533 | 8 | 127 | 1.6 | 4.8 | 0.00 | 0.00 | 0.00 | 94 | 1007.9 |
| 20260506010031 | 8 | 117 | 1.6 | 3.2 | 0.00 | 0.00 | 0.00 | 94 | 1008.0 |
| 20260506004534 | 8 | 141 | 1.6 | 6.4 | 0.00 | 0.00 | 0.00 | 94 | 1008.1 |
| 20260506003028 | 8 | 127 | 1.6 | 6.4 | 0.00 | 0.00 | 0.00 | 94 | 1008.2 |
| 20260506001528 | 8 | 136 | 0.0 | 3.2 | 0.00 | 0.00 | 0.00 | 94 | 1008.2 |
| 20260506000043 | 8 | 132 | 1.6 | 6.4 | 0.00 | 0.00 | 0.00 | 94 | 1008.4 |
| 20260505234534 | 8 | 131 | 1.6 | 8.0 | 0.00 | 0.00 | 0.00 | 94 | 1008.4 |
| 20260505233028 | 8 | 185 | 1.6 | 8.0 | 0.00 | 0.00 | 0.00 | 94 | 1008.5 |
| 20260505231530 | 9 | 146 | 0.0 | 3.2 | 0.00 | 0.00 | 0.00 | 94 | 1008.5 |
| 20260505230041 | 9 | 126 | 1.6 | 4.8 | 0.00 | 0.00 | 0.00 | 94 | 1008.6 |
| 20260505224536 | 9 | 128 | 1.6 | 6.4 | 0.00 | 0.00 | 0.00 | 94 | 1008.7 |
| 20260505223036 | 9 | 0 | 0.0 | 6.4 | 0.00 | 0.00 | 0.00 | 94 | 1008.7 |
| 20260505221528 | 9 | 155 | 0.0 | 3.2 | 0.00 | 0.00 | 0.00 | 94 | 1008.7 |
| 20260505220031 | 9 | 127 | 1.6 | 3.2 | 0.00 | 0.00 | 0.00 | 94 | 1008.7 |
| 20260505214528 | 9 | 134 | 0.0 | 3.2 | 0.00 | 0.00 | 0.00 | 94 | 1008.8 |
| 20260505213030 | 9 | 149 | 0.0 | 4.8 | 0.00 | 0.00 | 0.00 | 94 | 1008.9 |
| 20260505211532 | 9 | 199 | 0.0 | 1.6 | 0.00 | 0.00 | 0.00 | 94 | 1008.9 |
| 20260505210028 | 9 | 151 | 0.0 | 4.8 | 0.00 | 0.00 | 0.00 | 94 | 1009.0 |
| 20260505204528 | 9 | 134 | 1.6 | 6.4 | 0.00 | 0.00 | 0.00 | 94 | 1009.0 |